Provo, UT

2:46 PM MST on November 17, 2017 (GMT -0700)
Provo Municipal

Weather History for KPVU - September, 2011

Change the Weather History Date:

Monday, September 26, 2011

  Actual Average Record
Temperature  
Mean Temperature 66 °F -  
Max Temperature 78 °F 71 °F 89 °F (2015)
Min Temperature 53 °F 43 °F 35 °F (2007)
Growing Degree Days 16 (Base 50)    
Moisture  
Dew Point 45 °F    
Average Humidity 56    
Maximum Humidity 72    
Minimum Humidity 23    
Precipitation  
Precipitation 0.00 in - - ()
Sea Level Pressure  
Sea Level Pressure 30.06 in    
Wind  
Wind Speed 3 mph (SE)    
Max Wind Speed 12 mph    
Max Gust Speed -    
Visibility 12 miles    
Events      
Averages and records for this station are not official NWS values.
T = Trace of Precipitation, MM = Missing Value Source: NWS Daily Summary

Daily Weather History Graph

Daily Weather History Graph

Search for Another Location

Airport or City:

Trip Planner

Search our weather history database for the weather conditions in past years. The results will help you decide how hot, cold, wet, or windy it might be!

Date:

Astronomy

Sep. 26, 2011 Rise Set
Actual Time 7:18 AM MDT 7:17 PM MDT
Civil Twilight 6:51 AM MDT 7:44 PM MDT
Nautical Twilight 6:19 AM MDT 8:16 PM MDT
Astronomical Twilight 5:47 AM MDT 8:48 PM MDT
Moon 6:22 AM MDT (9/26) 6:34 PM MDT (9/26)
Length of Visible Light 12h 53m
Length of Day
11h 59m
Waning Crescent, 1% of the Moon is Illuminated
Sep 26
Waning Crescent
Sep 27
New
Oct 3
First Quarter
Oct 11
Full
Oct 19
Last Quarter

Hourly Weather History & Observations

Time (MDT) Temp. Dew Point Humidity Pressure Visibility Wind Dir Wind Speed Gust Speed Precip Events Conditions
12:15 AM 64.4 °F 39.2 °F 40% 29.96 in 10.0 mi Calm Calm - N/A   Clear
12:35 AM 62.6 °F 42.8 °F 48% 29.96 in 10.0 mi East 4.6 mph - N/A   Clear
12:55 AM 60.8 °F 44.6 °F 55% 29.96 in 10.0 mi Calm Calm - N/A   Clear
1:15 AM 60.8 °F 42.8 °F 52% 29.96 in 10.0 mi North 3.5 mph - N/A   Clear
1:35 AM 60.8 °F 39.2 °F 45% 29.97 in 10.0 mi Calm Calm - N/A   Clear
1:55 AM 62.6 °F 42.8 °F 48% 29.97 in 10.0 mi Calm Calm - N/A   Clear
2:15 AM 59.0 °F 42.8 °F 55% 29.98 in 10.0 mi ESE 6.9 mph - N/A   Clear
2:35 AM 57.2 °F 42.8 °F 59% 29.98 in 10.0 mi Calm Calm - N/A   Clear
2:55 AM 57.2 °F 42.8 °F 59% 29.98 in 10.0 mi SE 4.6 mph - N/A   Clear
3:15 AM 55.4 °F 42.8 °F 63% 29.98 in 10.0 mi Calm Calm - N/A   Clear
3:35 AM 55.4 °F 42.8 °F 63% 29.99 in 10.0 mi Calm Calm - N/A   Clear
3:55 AM 53.6 °F 44.6 °F 72% 29.99 in 10.0 mi Calm Calm - N/A   Partly Cloudy
4:15 AM 55.4 °F 42.8 °F 63% 30.00 in 10.0 mi SE 5.8 mph - N/A   Clear
4:35 AM 55.4 °F 44.6 °F 67% 30.00 in 10.0 mi ESE 5.8 mph - N/A   Scattered Clouds
4:55 AM 55.4 °F 44.6 °F 67% 30.01 in 10.0 mi SW 4.6 mph - N/A   Mostly Cloudy
5:15 AM 57.2 °F 44.6 °F 63% 30.02 in 10.0 mi Calm Calm - N/A   Overcast
5:35 AM 57.2 °F 42.8 °F 59% 30.03 in 10.0 mi ESE 3.5 mph - N/A   Mostly Cloudy
5:55 AM 57.2 °F 44.6 °F 63% 30.03 in 10.0 mi SE 3.5 mph - N/A   Mostly Cloudy
6:35 AM 57.2 °F 46.4 °F 67% 30.04 in 10.0 mi SE 4.6 mph - N/A   Scattered Clouds
6:51 AM 57.2 °F 44.6 °F 63% 30.05 in 15.0 mi Calm Calm - N/A   Scattered Clouds
6:55 AM 57.2 °F 44.6 °F 63% 30.05 in 10.0 mi Calm Calm - N/A   Mostly Cloudy
7:55 AM 55.4 °F 46.4 °F 72% 30.09 in 15.0 mi Calm Calm - N/A   Scattered Clouds
8:47 AM 60.8 °F 50.0 °F 68% 30.11 in 15.0 mi Calm Calm - N/A   Partly Cloudy
9:55 AM 66.2 °F 48.2 °F 52% 30.14 in 15.0 mi ESE 5.8 mph - N/A   Partly Cloudy
11:57 AM 71.6 °F 42.8 °F 35% 30.15 in 15.0 mi Calm Calm - N/A   Partly Cloudy
12:51 PM 73.4 °F 44.6 °F 36% 30.14 in 15.0 mi SW 4.6 mph - N/A   Partly Cloudy
1:50 PM 73.4 °F 44.6 °F 36% 30.14 in 15.0 mi Variable 5.8 mph - N/A   Partly Cloudy
3:50 PM 78.8 °F 37.4 °F 23% 30.11 in 15.0 mi Variable 5.8 mph - N/A   Partly Cloudy
4:50 PM 78.8 °F 42.8 °F 28% 30.10 in 15.0 mi Variable 5.8 mph - N/A   Partly Cloudy
5:56 PM 77.0 °F 55.4 °F 47% 30.10 in 15.0 mi WNW 9.2 mph - N/A   Partly Cloudy
6:50 PM 71.6 °F 53.6 °F 53% 30.10 in 15.0 mi WNW 11.5 mph - N/A   Partly Cloudy
7:50 PM 69.8 °F 50.0 °F 49% 30.12 in 15.0 mi NW 11.5 mph - N/A   Partly Cloudy
9:15 PM 64.4 °F 51.8 °F 64% 30.15 in 10.0 mi NNE 5.8 mph - N/A   Clear
9:35 PM 64.4 °F 50.0 °F 59% 30.15 in 10.0 mi ENE 4.6 mph - N/A   Clear
9:55 PM 64.4 °F 48.2 °F 56% 30.16 in 10.0 mi SSE 8.1 mph - N/A   Clear
10:15 PM 62.6 °F 51.8 °F 68% 30.16 in 10.0 mi SSE 8.1 mph - N/A   Clear
10:35 PM 60.8 °F 48.2 °F 63% 30.17 in 10.0 mi SSE 6.9 mph - N/A   Clear
11:35 PM 57.2 °F 48.2 °F 72% 30.17 in 10.0 mi SE 3.5 mph - N/A   Clear
11:55 PM 60.8 °F 46.4 °F 59% 30.18 in 10.0 mi ESE 3.5 mph - N/A   Clear